TimeCDT,TemperatureF,Dew PointF,Humidity,Sea Level PressureIn,VisibilityMPH,Wind Direction,Wind SpeedMPH,Gust SpeedMPH,PrecipitationIn,Events,Conditions,WindDirDegrees,DateUTC
12:54 AM,66.0,63.0,90,29.96,10.0,Calm,Calm,-,N/A,,Clear,0,2013-06-19 05:54:00
1:54 AM,64.9,62.1,90,29.96,10.0,Calm,Calm,-,N/A,,Clear,0,2013-06-19 06:54:00
2:54 AM,64.0,62.1,93,29.98,10.0,Calm,Calm,-,N/A,,Clear,0,2013-06-19 07:54:00
3:54 AM,64.0,62.1,93,29.98,10.0,Calm,Calm,-,N/A,,Clear,0,2013-06-19 08:54:00
4:54 AM,63.0,61.0,93,29.99,9.0,Calm,Calm,-,N/A,,Clear,0,2013-06-19 09:54:00
5:54 AM,64.0,61.0,90,30.01,8.0,Calm,Calm,-,N/A,,Clear,0,2013-06-19 10:54:00
6:54 AM,68.0,62.1,81,30.03,10.0,NNE,3.5,-,N/A,,Clear,30,2013-06-19 11:54:00
7:54 AM,70.0,63.0,78,30.04,10.0,Calm,Calm,-,N/A,,Mostly Cloudy,0,2013-06-19 12:54:00
8:54 AM,71.1,64.0,78,30.05,10.0,East,4.6,-,N/A,,Mostly Cloudy,90,2013-06-19 13:54:00
9:54 AM,73.9,64.9,73,30.05,10.0,ESE,4.6,-,N/A,,Clear,110,2013-06-19 14:54:00
10:54 AM,78.1,64.9,64,30.05,10.0,Calm,Calm,-,N/A,,Clear,0,2013-06-19 15:54:00
11:54 AM,80.1,66.0,62,30.05,10.0,ENE,4.6,-,N/A,,Scattered Clouds,70,2013-06-19 16:54:00
12:54 PM,81.0,66.0,60,30.04,10.0,Variable,5.8,-,N/A,,Scattered Clouds,0,2013-06-19 17:54:00
1:54 PM,82.9,63.0,51,30.02,10.0,Calm,Calm,-,N/A,,Scattered Clouds,0,2013-06-19 18:54:00
2:54 PM,84.0,61.0,46,30.01,10.0,East,6.9,-,N/A,,Mostly Cloudy,80,2013-06-19 19:54:00
3:54 PM,87.1,60.1,40,30.00,10.0,North,3.5,-,N/A,,Clear,360,2013-06-19 20:54:00
4:54 PM,84.9,60.1,43,30.01,10.0,Variable,5.8,-,N/A,,Clear,0,2013-06-19 21:54:00
5:54 PM,84.9,59.0,41,29.99,10.0,WNW,3.5,-,N/A,,Mostly Cloudy,290,2013-06-19 22:54:00
6:54 PM,84.0,61.0,46,29.99,10.0,NW,4.6,-,N/A,,Clear,310,2013-06-19 23:54:00
7:54 PM,78.1,64.9,64,29.99,10.0,Calm,Calm,-,N/A,,Clear,0,2013-06-20 00:54:00
8:54 PM,73.0,64.9,76,30.00,10.0,Calm,Calm,-,N/A,,Scattered Clouds,0,2013-06-20 01:54:00
9:54 PM,72.0,66.9,84,30.02,10.0,Calm,Calm,-,N/A,,Clear,0,2013-06-20 02:54:00
10:54 PM,70.0,66.0,87,30.03,10.0,Calm,Calm,-,N/A,,Clear,0,2013-06-20 03:54:00
11:54 PM,68.0,64.0,87,30.04,10.0,Calm,Calm,-,N/A,,Clear,0,2013-06-20 04:54:00